A/2020 M4

Japanese version
Home page
Updated on May 4, 2021

---------------------------------------------------------------------

* Profile

Discovery Date June 17, 2020
Magnitude 21.98 mag
Discoverer Pan-STARRS 2 (Haleakala)

* Orbital Elements

Epoch 2020 Nov. 7.0 TT = JDT 2459160.5
T 2020 Nov. 23.66593 TT                                 Rudenko
q   5.9524341            (2000.0)            P               Q
z  +0.0001965      Peri.  104.62660     -0.42695924     -0.90178370
 +/-0.0000059      Node   348.62981     -0.90365911     +0.42277099
e   0.9988302      Incl.  160.12558     -0.03325686     +0.08972654
H   14.5
From 57 observations 2020 June 13-2021 Apr. 14, mean residual 0".3.

* Magnitudes Graph

        H = 14.0  G = 0.15

---------------------------------------------------------------------

The orbital elements are published on M.P.E.C. 2021-J28.
The magnitudes graphs are made with Comet for Windows.

---------------------------------------------------------------------

Copyright(C) Seiichi Yoshida (comet@aerith.net). All rights reserved.